This demonstration page uses our WeatherBlox Daily Observations layout. Learn more.

Left ArrowRight Arrow

44.8408, -93.29828

Hourly Observations for August 15, 2017

Temp ( °F °C ) Dew Point ( °F °C ) Humidity (%) Winds ( mph kmh ) Pressure ( in mb ) Visibility ( mi km ) Precip ( " mm )
12:53 am 00:53 Clear 64 17.8 60 15.6 87 87 Calm 29.92 1013 10 16 0.00 0.00
1:53 am 01:53 Clear 62 16.7 59 15 90 90 NE 6 9 29.89 1012 10 16 0.00 0.00
2:53 am 02:53 Clear 62 16.7 59 15 90 90 NNE 3 6 29.92 1013 10 16 0.00 0.00
3:53 am 03:53 Clear 61 16.1 58 14.4 90 90 Calm 29.93 1013 10 16 0.00 0.00
4:53 am 04:53 Clear 61 16.1 57 13.9 87 87 ENE 6 9 29.91 1013 10 16 0.00 0.00
5:53 am 05:53 Clear 60 15.6 57 13.9 90 90 ENE 3 6 29.93 1013 10 16 0.00 0.00
6:53 am 06:53 Mostly Cloudy 62 16.7 58 14.4 86 86 S 5 7 29.96 1015 10 16 0.00 0.00
7:53 am 07:53 Mostly Cloudy 62 16.7 58 14.4 86 86 E 8 13 29.96 1015 10 16 0.00 0.00
8:06 am 08:06 Mostly Cloudy 62 16.7 57 13.9 84 84 SE 6 9 29.94 1014 10 16 0.00 0.00
8:53 am 08:53 Mostly Cloudy 62 16.7 57 13.9 84 84 SE 9 15 29.97 1015 10 16 0.00 0.00
9:53 am 09:53 Mostly Cloudy 64 17.8 57 13.9 78 78 ESE 9 15 29.98 1015 10 16 0.00 0.00
10:53 am 10:53 Mostly Cloudy 67 19.4 57 13.9 71 71 SE 6 9 29.98 1015 10 16 0.00 0.00
11:53 am 11:53 Mostly Cloudy 70 21.1 56 13.3 61 61 SE 9 15 29.98 1015 10 16 0.00 0.00
12:53 pm 12:53 Mostly Cloudy 72 22.2 57 13.9 59 59 ESE 13 20 29.98 1015 10 16 0.00 0.00
1:53 pm 13:53 Partly Cloudy 75 23.9 58 14.4 55 55 ESE 10 17 29.96 1015 10 16 0.00 0.00
2:53 pm 14:53 Partly Cloudy 77 25 57 13.9 50 50 E 13 20 29.95 1014 10 16 0.00 0.00
3:53 pm 15:53 Mostly Cloudy 76 24.4 56 13.3 50 50 ESE 12 19 29.93 1014 10 16 0.00 0.00
4:53 pm 16:53 Cloudy 76 24.4 58 14.4 54 54 SSE 9 15 29.94 1014 10 16 0.00 0.00
5:53 pm 17:53 Cloudy 75 23.9 58 14.4 55 55 SE 10 17 29.94 1014 10 16 0.00 0.00
6:53 pm 18:53 Cloudy 73 22.8 59 15 62 62 SE 9 15 29.93 1014 10 16 0.00 0.00
7:53 pm 19:53 Cloudy 71 21.7 60 15.6 68 68 SE 7 11 29.92 1013 10 16 0.00 0.00
8:53 pm 20:53 Cloudy 70 21.1 60 15.6 71 71 SSE 5 7 29.93 1014 10 16 0.00 0.00
9:53 pm 21:53 Cloudy 69 20.6 60 15.6 73 73 SE 7 11 29.94 1014 10 16 0.00 0.00
10:53 pm 22:53 Cloudy 68 20 60 15.6 76 76 ESE 8 13 29.93 1014 10 16 0.00 0.00
11:53 pm 23:53 Cloudy 67 19.4 61 16.1 81 81 SE 8 13 29.93 1014 10 16 0.00 0.00

Powered by AerisWeather